Showing default

SKYBEE-A02, 64544

Orbit data source: Space-Track

SKYBEE-A02, 64544 is a payload satellite owned by ConstellR (DE) in SSO that was launched on Mon, 23 Jun 2025 UTC via an FALCON 9 launch vehicle from the Air Force Western Test Range (AFWTR). Payload-class satellites include a variety of spacecraft equipped with specific instruments for various scientific and technological missions. These include communications satellites like Starlink; space stations such as the ISS; scientific satellites like the Hubble; Earth observation satellites from companies like Planet Labs, Umbra, and HawkEye 360; GPS; miniature CubeSats for education and research; and military/defense satellites.

Loading next visibility...
Identifier
64544, 2025-135S
Orbit
SSO
Country
Flag of DEDE / GER
Related business
Manufacturer
NanoAvionics
Mission
Operational Commercial Imaging
Bus & Motor
CUBESAT 16U MP42, Unknown motor
Mass
110 kg wet, 110 kg dry
Launch date (UTC)
2025-06-23 (8 months ago)
Launch vehicle
FALCON 9
Launch site
Air Force Western Test Range (AFWTR)
Object type
Payload
Rocket body
Debris
Shape & HBR
Box + 2 Pan, 0.5 m
Radar Cross Section
0.146 m², Large (>1 m²)

Expand to show TLE details & history
Last TLE update: 8 hours ago

TLE from 8 hours ago
0 SKYBEE-A02
1 64544U 25135S   26062.59378231  .00004971  00000-0  23775-3 0  9991
2 64544  97.4604 178.5441 0002824 130.8606 229.2874 15.19445106 38792
Epoch: 2026-03-03T14:15Z
TLE epoch observation values (Epoch: 2026-03-03T14:15:02.791Z)
Latitude
-0.00001°
Longitude
163.41186°
Altitude
511.873 km
Speed
7.607 km/s
True Right ascension
11h 54m 10s
True Declination
0° 00' 00"
Sunlit
Object was in full shadow at epoch
Visualization orbit readout
Latitude
Unknown
Longitude
Unknown
Altitude
Unknown
Speed
Unknown
Apparent Right ascension
Unknown
Apparent Declination
Unknown
Sunlit
N/A
Visualization observer readout
Local Sidereal Time
02:02:12
Azimuth
Unknown
Elevation
Unknown
Doppler factor
Unknown
Orbital elements
Apogee altitude
506.429 km
Perigee altitude
502.542 km
Semi-major axis
6,882.622 km
Eccentricity
0.00028
Inclination
97.4604°
RAAN
178.5441°
Arg. of periapsis
130.8606°
True anomaly
229.26288°
Mean anomaly
229.2874°
Eccentric anomaly
229.27514°
Mean motion
3.80113 °/min
Orbital period
94.71 mins
BSTAR
0.00023775
Loading maneuver chart data...
Computing Atmospheric mass density...
Loading historical data...
Loading historical data...
Loading historical data...
Loading historical data...
Loading historical data...
Loading historical data...
Loading historical data...

Documentation

Showing up to 5 results
|